| time (UTC) | temp F | wind direction | speed knots | gust knots | rain 1hr in | rain 24hr in | rain mn in | humidity % | barometer mb |
| 20260507054558 | 38 | 164 | 1.7 | 5.2 | 0.03 | 0.15 | 0.15 | 93 | 1016.6 |
| 20260507053058 | 39 | 117 | 0.9 | 3.5 | 0.05 | 0.14 | 0.14 | 92 | 1016.5 |
| 20260507051558 | 39 | 172 | 0.0 | 3.5 | 0.09 | 0.14 | 0.14 | 90 | 1016.4 |
| 20260507050058 | 39 | 126 | 2.6 | 5.2 | 0.10 | 0.13 | 0.13 | 91 | 1016.4 |
| 20260507044557 | 38 | 46 | 2.6 | 6.1 | 0.10 | 0.12 | 0.12 | 93 | 1016.4 |
| 20260507043055 | 38 | 138 | 0.9 | 6.1 | 0.07 | 0.09 | 0.09 | 93 | 1016.4 |
| 20260507041553 | 38 | 169 | 5.2 | 12.2 | 0.02 | 0.04 | 0.04 | 92 | 1016.4 |
| 20260507040050 | 39 | 149 | 7.0 | 15.6 | 0.02 | 0.03 | 0.03 | 89 | 1016.3 |
| 20260507034549 | 41 | 227 | 5.2 | 10.4 | 0.01 | 0.02 | 0.02 | 88 | 1016.0 |
| 20260507033048 | 42 | 244 | 0.0 | 1.7 | 0.02 | 0.02 | 0.02 | 88 | 1015.5 |
| 20260507031549 | 41 | 227 | 0.0 | 4.3 | 0.02 | 0.02 | 0.02 | 86 | 1015.4 |
| 20260507030046 | 42 | 164 | 1.7 | 4.3 | 0.01 | 0.01 | 0.01 | 85 | 1015.5 |
| 20260507024556 | 43 | 223 | 1.7 | 4.3 | 0.01 | 0.01 | 0.01 | 83 | 1015.3 |
| 20260507023045 | 44 | 196 | 2.6 | 5.2 | 0.00 | 0.00 | 0.00 | 80 | 1015.3 |
| 20260507021544 | 44 | 18 | 0.0 | 1.7 | 0.00 | 0.00 | 0.00 | 81 | 1015.1 |
| 20260507014552 | 43 | 267 | 0.9 | 2.6 | 0.00 | 0.00 | 0.00 | 83 | 1015.0 |
| 20260507013047 | 43 | 130 | 0.9 | 3.5 | 0.00 | 0.00 | 0.00 | 82 | 1015.0 |
| 20260507011540 | 43 | 171 | 0.9 | 7.0 | 0.00 | 0.00 | 0.00 | 81 | 1015.0 |
| 20260507010040 | 43 | 227 | 0.9 | 4.3 | 0.00 | 0.00 | 0.00 | 81 | 1015.0 |
| 20260507004542 | 43 | 128 | 1.7 | 6.1 | 0.00 | 0.00 | 0.00 | 80 | 1015.0 |
| 20260507003037 | 43 | 207 | 3.5 | 7.0 | 0.00 | 0.00 | 0.00 | 81 | 1014.9 |
| 20260507001538 | 43 | 190 | 2.6 | 6.1 | 0.00 | 0.00 | 0.00 | 81 | 1014.8 |
| 20260507000035 | 43 | 184 | 2.6 | 7.8 | 0.00 | 0.00 | 0.00 | 80 | 1014.8 |
| 20260506234537 | 44 | 259 | 4.3 | 8.7 | 0.00 | 0.00 | 0.00 | 78 | 1014.5 |
| 20260506233034 | 44 | 265 | 3.5 | 7.8 | 0.00 | 0.00 | 0.00 | 75 | 1014.5 |
| 20260506231545 | 44 | 227 | 5.2 | 13.9 | 0.00 | 0.00 | 0.00 | 76 | 1014.3 |
| 20260506230039 | 44 | 163 | 7.0 | 12.2 | 0.00 | 0.00 | 0.00 | 73 | 1014.3 |
| 20260506224531 | 44 | 158 | 6.1 | 12.2 | 0.00 | 0.00 | 0.00 | 72 | 1014.3 |
| 20260506223044 | 43 | 208 | 4.3 | 10.4 | 0.00 | 0.00 | 0.00 | 74 | 1014.1 |
| 20260506221527 | 43 | 196 | 5.2 | 11.3 | 0.00 | 0.00 | 0.00 | 73 | 1014.0 |
| 20260506220027 | 46 | 270 | 0.0 | 2.6 | 0.00 | 0.00 | 0.00 | 73 | 1013.8 |
| 20260506214525 | 46 | 294 | 1.7 | 3.5 | 0.00 | 0.00 | 0.00 | 73 | 1013.9 |
| 20260506213026 | 45 | 317 | 1.7 | 5.2 | 0.00 | 0.00 | 0.00 | 74 | 1013.7 |
| 20260506211529 | 45 | 290 | 0.9 | 4.3 | 0.00 | 0.00 | 0.00 | 74 | 1013.6 |
| 20260506210023 | 45 | 244 | 2.6 | 7.8 | 0.00 | 0.00 | 0.00 | 75 | 1013.5 |
| 20260506204519 | 45 | 252 | 1.7 | 4.3 | 0.00 | 0.00 | 0.00 | 74 | 1013.4 |
| 20260506203023 | 45 | 310 | 1.7 | 7.0 | 0.00 | 0.00 | 0.00 | 75 | 1013.3 |
| 20260506201529 | 44 | 246 | 1.7 | 3.5 | 0.00 | 0.00 | 0.00 | 76 | 1013.2 |
| 20260506200013 | 44 | 320 | 2.6 | 7.0 | 0.00 | 0.00 | 0.00 | 77 | 1013.0 |
| 20260506194510 | 43 | 329 | 0.9 | 6.1 | 0.00 | 0.00 | 0.00 | 77 | 1012.9 |
| 20260506193009 | 43 | 279 | 1.7 | 6.1 | 0.00 | 0.00 | 0.00 | 78 | 1013.0 |
| 20260506191507 | 43 | 232 | 0.9 | 4.3 | 0.00 | 0.00 | 0.00 | 75 | 1013.1 |
| 20260506190006 | 43 | 223 | 1.7 | 6.1 | 0.00 | 0.00 | 0.00 | 78 | 1012.9 |
| 20260506184504 | 42 | 288 | 0.9 | 3.5 | 0.00 | 0.00 | 0.00 | 79 | 1012.9 |
| 20260506183003 | 41 | 286 | 1.7 | 5.2 | 0.00 | 0.00 | 0.00 | 80 | 1012.8 |
| 20260506181502 | 41 | 225 | 0.0 | 3.5 | 0.00 | 0.00 | 0.00 | 81 | 1012.6 |
| 20260506180000 | 41 | 252 | 1.7 | 4.3 | 0.00 | 0.00 | 0.00 | 80 | 1012.6 |
| 20260506174600 | 41 | 272 | 0.9 | 2.6 | 0.00 | 0.00 | 0.00 | 80 | 1012.6 |
| 20260506173109 | 41 | 228 | 0.0 | 1.7 | 0.00 | 0.00 | 0.00 | 81 | 1012.5 |
| 20260506171557 | 40 | 148 | 0.0 | 1.7 | 0.00 | 0.00 | 0.00 | 82 | 1012.3 |
| 20260506170112 | 39 | 251 | 0.9 | 2.6 | 0.00 | 0.00 | 0.00 | 81 | 1012.3 |
| 20260506164556 | 39 | 248 | 0.9 | 1.7 | 0.00 | 0.00 | 0.00 | 82 | 1012.3 |
| 20260506163104 | 38 | 237 | 0.0 | 1.7 | 0.00 | 0.00 | 0.00 | 83 | 1012.0 |
| 20260506161552 | 38 | 246 | 0.0 | 0.9 | 0.00 | 0.00 | 0.00 | 83 | 1011.9 |
| 20260506160051 | 38 | 251 | 0.0 | 1.7 | 0.00 | 0.00 | 0.00 | 83 | 1011.8 |
| 20260506154551 | 38 | 221 | 0.0 | 1.7 | 0.00 | 0.00 | 0.00 | 83 | 1011.8 |
| 20260506153049 | 38 | 147 | 0.0 | 2.6 | 0.00 | 0.00 | 0.00 | 81 | 1011.7 |
| 20260506151548 | 38 | 140 | 0.0 | 1.7 | 0.00 | 0.00 | 0.00 | 80 | 1011.6 |
| 20260506150047 | 38 | 234 | 0.0 | 0.0 | 0.00 | 0.00 | 0.00 | 80 | 1011.4 |
| 20260506144559 | 38 | 204 | 0.0 | 0.0 | 0.00 | 0.00 | 0.00 | 79 | 1011.4 |
| 20260506143046 | 38 | 323 | 0.9 | 3.5 | 0.00 | 0.00 | 0.00 | 79 | 1011.4 |
| 20260506141544 | 38 | 34 | 0.9 | 3.5 | 0.00 | 0.00 | 0.00 | 79 | 1011.3 |
| 20260506140046 | 38 | 11 | 0.9 | 3.5 | 0.00 | 0.00 | 0.00 | 78 | 1011.3 |
| 20260506134542 | 39 | 355 | 0.9 | 1.7 | 0.00 | 0.00 | 0.00 | 76 | 1011.1 |
| 20260506133043 | 39 | 77 | 0.0 | 1.7 | 0.00 | 0.00 | 0.00 | 76 | 1011.1 |
| 20260506131539 | 39 | 62 | 0.0 | 2.6 | 0.00 | 0.00 | 0.00 | 75 | 1011.1 |
| 20260506130039 | 39 | 48 | 0.9 | 2.6 | 0.00 | 0.00 | 0.00 | 75 | 1011.0 |
| 20260506124537 | 39 | 42 | 0.9 | 1.7 | 0.00 | 0.00 | 0.00 | 75 | 1011.0 |
| 20260506123036 | 39 | 87 | 0.0 | 1.7 | 0.00 | 0.00 | 0.00 | 74 | 1011.0 |
| 20260506121534 | 39 | 43 | 0.9 | 2.6 | 0.00 | 0.00 | 0.00 | 73 | 1010.9 |
| 20260506120041 | 39 | 146 | 0.0 | 1.7 | 0.00 | 0.00 | 0.00 | 73 | 1010.8 |
| 20260506114533 | 40 | 323 | 0.0 | 1.7 | 0.00 | 0.00 | 0.00 | 73 | 1010.7 |
| 20260506113034 | 40 | 235 | 0.0 | 2.6 | 0.00 | 0.00 | 0.00 | 71 | 1010.7 |
| 20260506111531 | 40 | 94 | 0.0 | 2.6 | 0.00 | 0.00 | 0.00 | 72 | 1010.7 |
| 20260506110032 | 41 | 49 | 0.9 | 4.3 | 0.00 | 0.00 | 0.00 | 69 | 1010.7 |
| 20260506104528 | 41 | 12 | 0.0 | 2.6 | 0.00 | 0.00 | 0.00 | 69 | 1010.7 |
| 20260506103029 | 40 | 84 | 0.9 | 7.0 | 0.00 | 0.00 | 0.00 | 71 | 1010.5 |
| 20260506101525 | 40 | 157 | 0.9 | 4.3 | 0.00 | 0.00 | 0.00 | 73 | 1010.5 |
| 20260506100023 | 41 | 146 | 2.6 | 6.1 | 0.00 | 0.00 | 0.00 | 71 | 1010.5 |
| 20260506094521 | 41 | 116 | 0.9 | 2.6 | 0.00 | 0.00 | 0.00 | 70 | 1010.3 |
| 20260506093019 | 41 | 153 | 0.9 | 3.5 | 0.00 | 0.00 | 0.00 | 67 | 1010.2 |
| 20260506091518 | 42 | 123 | 1.7 | 9.6 | 0.00 | 0.00 | 0.00 | 66 | 1010.0 |
| 20260506090019 | 42 | 107 | 2.6 | 11.3 | 0.00 | 0.00 | 0.00 | 65 | 1009.9 |
| 20260506084513 | 42 | 122 | 2.6 | 8.7 | 0.00 | 0.00 | 0.00 | 65 | 1009.9 |
| 20260506083013 | 42 | 73 | 4.3 | 12.2 | 0.00 | 0.00 | 0.00 | 65 | 1009.7 |
| 20260506081509 | 42 | 113 | 6.1 | 13.9 | 0.00 | 0.00 | 0.00 | 65 | 1009.6 |
| 20260506073002 | 38 | 157 | 11.3 | 19.1 | 0.00 | 0.00 | 0.00 | 70 | 1009.1 |
| 20260506071600 | 38 | 137 | 12.2 | 21.7 | 0.00 | 0.00 | 0.00 | 69 | 1009.1 |
| 20260506061600 | 38 | 146 | 12.2 | 20.0 | 0.00 | 0.00 | 0.00 | 70 | 1008.8 |